Погода в Приуральском

Россия / Республика Коми     64°44′01″N   57°52′15″E
темп.,
°C
ветер,
м/с
пор.,
м/с
влажн.,
%
обл.,
%
осадки,
мм/ч
давл.,
гПа
погр.,
м
26 февраля, пт
пт2600:00−21ю4993100 0.0 1022276
03:00−21ю4993100 0.0 1022303
06:00−21ююв41093100 0.0 1021318
09:00−20ю41090100 0.0 1020384
12:00−16ю5118693 0.0 1019533
15:00−16ю4108593 0.0 1019594
18:00−17ююв4128797 0.0 1018448
21:00−19ю4128792 0.0 1018404
27 февраля, сб
сб2700:00−19ююв4128781 0.0 1017357
03:00−20ююв3108990 0.0 1018252
06:00−21ю279099 0.0 1017139
09:00−17ю378588 0.0 1018332
12:00−13ю26820 0.0 1017482
15:00−14ююв12900 0.0 101736
18:00−19ююв23920 0.0 101638
21:00−21ююв38890 0.0 1017152
28 февраля, вс
вс2800:00−23ююв388956 0.0 1016156
03:00−24ююв369060 0.0 1017129
06:00−25ю368959 0.0 1016136
09:00−21ю378648 0.0 1016256
12:00−17ю378535 0.0 1015345
15:00−16ю388766 0.0 1015397
18:00−17ю389289 0.0 1015251
21:00−18ю379492 0.0 1016247
1 марта, пн
пн100:00−18ю389598 0.1 1016264
03:00−18ю489598 0.2 1016280
06:00−18ю4995100 0.1 1015310
09:00−17ю51093100 0.3 1013410
12:00−14ю51192100 0.1 1011493
15:00−13ю61391100 0.3 1008551
18:00−13ю71490100 0.1 1005590
21:00−13ю71593100 0.8 1003676
2 марта, вт
вт200:00−13ю61393100 1.1 1001726
03:00−13ю61393100 1.8 1000690
06:00−14ю61293100 0.8 999667
09:00−13ю51193100 1.6 999663
12:00−12ю51093100 0.6 1000654
15:00−12ю4993100 1.1 1000636
18:00−13ю4994100 0.4 1001537
21:00−14ю3894100 0.6 1002357